Showing default

APRIZESAT 7, 39416

Orbit data source: Space-Track

APRIZESAT 7, 39416 is a payload satellite owned by SpaceQuest (US) in SSO that was launched on Thu, 21 Nov 2013 UTC via a DNEPR launch vehicle from the Orenburg, Russia (OREN). Payload-class satellites include a variety of spacecraft equipped with specific instruments for various scientific and technological missions. These include communications satellites like Starlink; space stations such as the ISS; scientific satellites like the Hubble; Earth observation satellites from companies like Planet Labs, Umbra, and HawkEye 360; GPS; miniature CubeSats for education and research; and military/defense satellites.

Loading next visibility...
Identifier
39416, 2013-066A
Orbit
SSO
Country
Flag of USUS
Related business
Manufacturer
SpaceQuest
Mission
Operational Commercial Communications
Bus & Motor
APRIZE, Unknown motor
Mass
14 kg wet, 14 kg dry
Launch date (UTC)
2013-11-21 (12 years ago)
Launch vehicle
DNEPR
Launch site
Orenburg, Russia (OREN)
Object type
Payload
Rocket body
Debris
Shape & HBR
Box + 1 Ant, 0.1 m
Radar Cross Section
0.060 m², Medium (>0.1 m² and < 1m²)

Expand to show TLE details & history
Last TLE update: 6 hours ago

TLE from 6 hours ago
0 APRIZESAT 7
1 39416U 13066A   26037.85898282  .00002298  00000-0  23473-3 0  9990
2 39416  97.7549 353.1138 0034546 284.1629  75.5752 14.91167169661801
Epoch: 2026-02-06T20:36Z
TLE epoch observation values (Epoch: 2026-02-06T20:36:56.115Z)
Latitude
-0.00004°
Longitude
-93.11083°
Altitude
591.413 km
Speed
7.568 km/s
True Right ascension
23h 32m 27s
True Declination
0° 00' 00"
Sunlit
Object was in daylight at epoch
Visualization orbit readout
Latitude
Unknown
Longitude
Unknown
Altitude
Unknown
Speed
Unknown
Apparent Right ascension
Unknown
Apparent Declination
Unknown
Sunlit
N/A
Visualization observer readout
Local Sidereal Time
04:29:17
Azimuth
Unknown
Elevation
Unknown
Doppler factor
Unknown
Orbital elements
Apogee altitude
615.391 km
Perigee altitude
567.238 km
Semi-major axis
6,969.451 km
Eccentricity
0.00345
Inclination
97.7549°
RAAN
353.1138°
Arg. of periapsis
284.1629°
True anomaly
75.959°
Mean anomaly
75.5752°
Eccentric anomaly
75.76706°
Mean motion
3.73031 °/min
Orbital period
96.51 mins
BSTAR
0.00023473
Loading maneuver chart data...
Computing Atmospheric mass density...
Loading historical data...
Loading historical data...
Loading historical data...
Loading historical data...
Loading historical data...
Loading historical data...
Loading historical data...

Documentation

Showing up to 5 results
|